Bei uns kannst du mitfliegen! Besuche uns und lerne uns kennen - als Gast, Pilot oder jemand der es werden möchte.

Kölner Klub für Luftsport e.V.

KKFL.de

Ausbildung – Fliegen – Abenteuer

Ausbildung im KKFL

Ausbildung

Fliegen lernen im Verein
Der KKFL.de bietet eine effiziente, schnelle Ausbildung zur Pivatpilotenlizenz (PPL) in verschiedenen Ausprägungen an. Nach der Ausbildung können diverse Ergänzungen vom Verstellpropeller bis hin zu Nachtflug oder das Fliegen nach Instrumentenflugregeln (IFR) angeschlossen werden.
Fliegen im Verein ist günstig!

Unsere Flotte

Cessna 172 S

D-EOCD
Die Cessna ist als schnelle Schul- und Reisemaschine gleichsam beliebt. Unsere vereins-eigene Flotte sorgt für Abwechlung bei den Piloten und unsere Werft senkt Kosten. In der Ausbildung dürfen Schüler über 'ihre Maschine' mit entscheiden.

Cessna 172 R

D-EFPB

Piper PA 28 II

D-EFPA

Aquila A210

D-EAQJ

Piper PA 28 II

D-ELFF

Flugplatz Hangelar


[Quelle: ADDS]
METAR
EDDK 171350Z 20011G25KT 170V230 9999 FEW027 BKN030 21/15 Q1009 NOSIG =
EDDK 171100Z 1712/1818 19010KT 9999 BKN030 BECMG 1716/1719 15005KT BECMG 1722/1801 RA TEMPO 1802/1806 3000 +RA BKN010 TEMPO 1806/1809 BKN010 BECMG 1809/1812 26008KT NSW
TAF
EDDK 171100Z 1712/1818 19010KT 9999 BKN030 BECMG 1716/1719 15005KT BECMG 1722/1801 RA TEMPO 1802/1806 3000 +RA BKN010 TEMPO 1806/1809 BKN010 BECMG 1809/1812 26008KT NSW =
SR / SS: 04:21 / 18:49 UTC (EDKB 2019-08-17)

Du willst fliegen?

Während unserer Bürozeiten und auch dazwischen sind wir für deine Fragen da.
Bitte kontaktiere den Verein unter den angegebenen Adressen.
© 2019 - Kölner Klub für Luftsport e.V.
Bonn / Hangelar - EDKB - Germany